PDT,Max TemperatureF,Mean TemperatureF,Min TemperatureF,Max Dew PointF,MeanDew PointF,Min DewpointF,Max Humidity, Mean Humidity, Min Humidity, Max Sea Level PressureIn, Mean Sea Level PressureIn, Min Sea Level PressureIn, Max VisibilityMiles, Mean VisibilityMiles, Min VisibilityMiles, Max Wind SpeedMPH, Mean Wind SpeedMPH, Max Gust SpeedMPH,PrecipitationIn, CloudCover, Events, WindDirDegrees
2011-10-1,69,61,52,55,54,48,89,74,59,30.03,29.97,29.92,10,10,10,9,5,16,0.00,7,,162
2011-10-2,73,62,51,53,49,41,96,65,34,30.06,30.02,29.96,10,10,10,10,2,,0.00,4,,179
2011-10-3,59,56,52,57,54,46,100,89,77,29.98,29.91,29.87,10,6,2,6,1,,1.29,8,Rain,160
2011-10-4,62,58,53,55,53,48,100,80,60,29.91,29.85,29.62,10,9,2,14,4,20,1.06,7,Rain,165
2011-10-5,58,52,45,52,48,42,100,83,66,29.87,29.72,29.62,10,9,2,12,2,,0.18,5,Rain,5
2011-10-6,67,57,47,50,47,43,100,71,42,30.09,29.93,29.84,10,10,7,8,3,,0.16,4,Rain,61
2011-10-7,73,59,44,50,46,43,100,71,41,30.20,30.15,30.09,10,9,1,9,2,,0.00,3,,322
2011-10-8,77,61,45,53,50,44,100,71,41,30.14,30.08,30.01,10,10,10,10,2,,0.01,0,,347
2011-10-9,78,63,48,56,50,46,100,69,38,30.07,30.02,29.93,10,9,1,12,2,17,0.00,3,,6
2011-10-10,66,62,58,65,61,55,100,89,78,29.98,29.92,29.88,10,5,1,8,2,,0.85,8,Rain,139
2011-10-11,75,65,55,63,59,53,100,75,49,30.12,30.04,29.97,10,6,0,7,1,,0.04,6,Fog,300
2011-10-12,80,65,49,56,52,47,100,66,32,30.14,30.07,29.99,10,10,10,4,0,,0.00,0,,270
2011-10-13,86,69,52,57,52,47,93,61,29,30.03,29.94,29.84,10,10,10,7,1,,0.00,0,,315
2011-10-14,88,70,52,60,56,51,93,62,31,29.88,29.84,29.77,10,10,10,5,0,,0.00,0,,280
2011-10-15,82,68,53,59,56,53,93,68,42,29.96,29.88,29.82,10,10,10,13,3,16,0.00,0,,152
2011-10-16,73,64,55,61,57,55,93,75,57,30.10,30.03,29.94,10,10,10,5,1,,0.00,4,,179
2011-10-17,87,69,51,60,55,51,100,69,37,30.15,30.09,29.98,10,8,0,4,0,,T,2,Fog,325
2011-10-18,85,68,50,59,54,50,100,67,34,30.07,30.01,29.92,10,10,10,9,1,,0.00,0,,345
2011-10-19,77,65,52,55,53,48,100,71,41,30.05,30.00,29.95,10,8,0,10,2,,0.00,2,Fog,351
2011-10-20,79,63,47,54,49,39,96,61,25,30.10,30.01,29.96,10,10,10,7,1,,0.00,0,,320
2011-10-21,78,62,45,52,49,44,100,67,33,30.19,30.14,30.10,10,10,10,8,1,,0.01,0,,303
2011-10-22,84,65,45,56,50,44,96,62,28,30.18,30.09,30.00,10,10,10,4,1,,0.00,0,,310
2011-10-23,84,65,46,53,49,45,100,66,31,30.04,29.98,29.91,10,10,10,4,0,,0.00,0,,270
2011-10-24,77,61,44,51,47,40,93,60,27,30.01,29.97,29.92,10,10,10,4,1,,0.00,0,,325
2011-10-25,75,60,44,49,46,42,100,68,35,30.11,30.04,29.99,10,10,10,6,1,,0.00,0,,330
2011-10-26,74,55,36,44,36,18,93,53,12,30.18,30.11,30.04,10,10,10,4,1,,T,0,,290
2011-10-27,75,57,38,44,38,28,93,56,19,30.10,30.06,30.00,10,10,10,5,0,,0.00,0,,350
2011-10-28,76,57,37,44,38,36,92,59,25,30.18,30.12,30.08,10,10,10,4,0,,0.00,0,,335
2011-10-29,78,58,38,49,42,37,92,58,23,30.20,30.13,30.06,10,10,10,6,1,,0.00,0,,317
2011-10-30,82,63,43,56,49,42,93,64,35,30.15,30.09,30.03,10,10,10,5,0,,0.00,0,,305
2011-10-31,77,62,47,54,49,44,100,66,31,30.10,30.05,29.98,10,10,10,12,2,,0.00,0,,352